Location: Unspecified
(52.1384°N, 8.6525°W)
Time: 19:05:59
(UTC+00:00)

N. Korean satellite - Pass Details

Date: 04 November 2020
Orbit: 453 x 503 km, 97.2° (Epoch: 04 December)

Event Time Altitude Azimuth Distance (km) Brightness Sun altitude
Rises 05:00:48 0° 31° (NNE) 2,480 10.7 -24.0°
Reaches altitude 10° 05:03:55 10° 63° (ENE) 1,601 10.1 -23.5°
Maximum altitude 05:05:24 12° 88° (E) 1,462 10.0 -23.3°
Drops below altitude 10° 05:06:53 10° 114° (ESE) 1,598 10.0 -23.1°
Sets 05:09:58 0° 146° (SE) 2,472 10.6 -22.6°
